Volver al catálogo

JB-3 C

ActivoMilitarSSO
NORAD 28470·PAYLOAD·🇨🇳 China

Lanzado Nov 6, 2004 desde Taiyuan Satellite Launch Center

Loading…

Próximos Pases (próximas 24 horas)

TLE

ActualizadoSource: Space-Track

Época: Sep 14, 2026, 08:28 UTC

1 28470U 04044A   26257.35318095  .00003032  00000-0  14272-3 0  9996
2 28470  97.2890  47.7926 0031255 268.2781  91.4874 15.19870762201320

Sigue JB-3 C en tiempo real con AllMySat

Download on the App Store